Home > Weather > Fortaleza > Past weeks

Flag for Brazil Weather for the Past 2 Weeks in Fortaleza, Ceará, Brazil

Now
81 °F

Passing clouds.


Feels Like: 86 °F
Forecast: 79 / 87 °F
Wind: 7 mph from East

Location: Fortaleza Aeropor-To

Current Time: Feb 8, 2016 at 4:18:29 AM

Latest Report: Feb 8, 2016 at 4:00 AM


Visibility: N/A

Pressure: 29.89 "Hg

Humidity: 84%

Dew point: 75 °F

Location of FortalezaLocation

Historic Weather in Fortaleza — Graph

°F

Fortaleza Temperature Yesterday

Maximum temperature yesterday: 88 °F (at 12:00 PM)
Minimum temperature yesterday: 77 °F (at 6:00 AM)
Average temperature yesterday: 83 °F

High & Low Weather Summary for the Past Weeks

 TemperatureHumidityPressure
High88 °F (Jan 24, 12:00 PM)100% (Jan 24, 8:00 PM)29.98 "Hg (Jan 24, 8:00 PM)
Low43 °F (Feb 2, 2:00 PM)22% (Jan 25, 12:00 AM)29.83 "Hg (Jan 29, 3:00 PM)
Average81 °F80%29.90 "Hg
* Reported Jan 24 3:00 AM — Feb 8 3:00 AM, Fortaleza, Weather by CustomWeather, © 2016

Note: Actual official high and low records may vary slightly from our data, if they occured in-between our weather recording intervals... More about our weather records

Advertising

Fortaleza Weather History for the Previous 24 Hours

 ConditionsComfort  
Time TempWeatherWind HumidityBarometerVisibility
3:00 AM
Mon, Feb 8
81 °FPassing clouds.8 mph84%29.89 "HgN/A
2:00 AM81 °FPassing clouds.7 mph84%29.89 "HgN/A
1:00 AM81 °FPassing clouds.8 mph84%29.92 "HgN/A
12:00 AM81 °FPassing clouds.9 mph84%29.92 "HgN/A
11:00 PM
Sun, Feb 7
81 °FPassing clouds.9 mph84%29.95 "HgN/A
10:00 PM82 °FPassing clouds.10 mph79%29.95 "HgN/A
9:00 PM82 °FPassing clouds.7 mph79%29.92 "HgN/A
8:00 PM82 °FPassing clouds.5 mph74%29.89 "HgN/A
7:00 PM82 °FClear.5 mph74%29.89 "Hg10 mi
6:00 PM82 °FPassing clouds.9 mph74%29.86 "HgN/A
5:00 PM84 °FPassing clouds.14 mph66%29.86 "HgN/A
4:00 PM84 °FPassing clouds.16 mph66%29.86 "HgN/A
3:00 PM86 °FPassing clouds.16 mph62%29.86 "HgN/A
2:00 PM86 °FPassing clouds.17 mph62%29.86 "HgN/A
1:00 PM88 °FPassing clouds.14 mph59%29.86 "HgN/A
12:00 PM88 °FScattered clouds.17 mph59%29.89 "HgN/A
11:00 AM86 °FScattered clouds.20 mph62%29.92 "HgN/A
10:00 AM86 °FScattered clouds.15 mph66%29.95 "HgN/A
9:00 AM82 °FPartly sunny.18 mph70%29.95 "HgN/A
8:00 AM82 °FScattered clouds.17 mph74%29.95 "HgN/A
7:00 AM81 °FScattered clouds.10 mph84%29.92 "HgN/A
6:00 AM77 °FScattered clouds.3 mph94%29.89 "HgN/A
5:00 AM81 °FPassing clouds.7 mph89%29.89 "HgN/A
4:00 AM81 °FLight rain. Passing clouds.12 mph84%29.89 "Hg4 mi
Weather by CustomWeather, © 2016

See weather overviewHow to use our weather pages